Theta_e
341 342 342 344 346 346 346 346 346 346 347 347 348 348 349 349 349 349 351 353 354 355 355 355 353 354 354 357 355 356 357 357 356
340 341 342 343 343 346 346 347 348 348 349 349 350 349 349 350 350 350 352 355 354 354 353 354 357 356 358 357 355 355 356 358 356
339 339 340 342 341 344 346 346 349 350 350 351 351 352 352 351 352 351 351 355 357 357 356 357 356 356 356 356 357 357 358 358 357
338 338 338 339 341 343 345 346 345 350 352 353 352 353 353 354 353 354 353 352 355 358 359 359 356 355 358 359 359 359 359 358 357
338 338 338 337 338 340 343 344 343 348 352 354 354 354 355 355 355 355 356 355 353 352 354 355 355 360 360 358 358 359 358 357 358
339 336 337 337 336 337 340 342 342 346 349 353 354 355 356 357 358 357 357 356 356 357 357 356 356 359 358 358 359 359 357 358 358
336 334 336 337 336 336 339 340 341 343 348 352 354 355 356 357 358 357 356 357 358 359 359 358 358 358 358 360 357 358 358 359 360
330 329 330 334 337 337 337 338 340 343 346 352 354 356 357 357 356 355 356 357 358 359 360 360 360 360 359 357 358 360 361 359 355
326 328 333 334 336 337 338 339 340 343 347 352 354 356 357 358 357 356 357 358 359 360 360 359 357 357 358 360 360 359 350 340 337
328 326 331 332 338 339 339 341 342 344 349 354 355 356 357 357 357 357 359 360 360 360 357 356 357 358 359 354 336 336 339 336 336
328 330 329 331 337 341 343 343 344 345 351 354 355 356 356 357 357 358 360 360 359 356 356 354 357 353 335 331 333 337 334 336 337
330 329 330 331 337 346 351 351 349 351 353 354 354 354 354 355 356 358 356 344 337 338 351 352 340 330 331 333 332 334 337 333 332
330 328 329 332 348 354 357 357 355 355 354 354 353 354 356 358 358 356 350 346 335 336 340 337 330 330 333 336 336 337 335 331 329
329 332 342 352 354 359 359 356 355 354 355 356 356 357 357 356 352 351 351 336 335 331 340 334 335 336 335 337 338 338 336 331 329
336 351 354 356 359 359 358 357 356 355 352 352 353 351 347 349 349 341 334 337 341 342 341 342 340 339 338 338 340 336 332 330 330
351 356 357 359 359 357 357 357 354 350 347 346 345 348 349 343 341 344 343 343 341 343 344 343 343 343 341 336 331 329 328 328 328
357 359 359 352 350 353 352 349 347 346 345 348 347 340 337 337 334 334 339 342 343 344 344 344 342 336 327 325 323 321 320 320 320
353 351 347 347 346 344 340 339 340 342 341 339 338 339 340 338 335 337 341 335 331 333 330 329 326 323 321 318 315 314 316 316 315
340 340 339 339 338 336 334 334 334 335 335 336 336 335 336 339 341 335 332 329 321 321 320 323 321 315 314 312 312 313 313 314 314
337 336 335 335 333 332 333 335 335 335 334 334 337 338 337 335 334 331 328 326 321 315 315 315 315 313 312 311 311 310 310 310 310
Wind_Speed
21 19 17 18 23 26 28 31 31 31 32 35 38 39 39 36 33 32 30 27 24 21 17 16 16 15 15 14 16 18 21 19 17
17 20 20 22 18 27 29 30 34 36 34 35 37 42 41 39 38 36 33 28 26 24 19 18 16 15 13 14 13 11 11 13 15
18 18 18 19 16 25 31 31 34 35 37 38 44 41 40 40 40 39 37 33 27 25 24 20 18 17 17 17 14 11 10 14 16
18 17 18 18 17 27 34 33 28 34 35 34 33 38 39 37 38 39 38 37 34 29 24 21 20 20 16 13 13 13 15 14 16
18 17 18 18 17 23 27 31 30 34 36 35 39 41 37 39 37 36 35 36 35 33 32 28 23 16 16 16 16 15 13 14 16
17 16 15 14 12 14 23 30 32 33 33 37 36 34 36 34 35 35 35 34 33 30 27 25 25 23 21 18 15 13 12 13 14
15 17 19 15 13 16 24 30 33 33 33 35 32 35 34 34 35 37 34 31 30 27 25 24 21 19 16 15 12 14 14 11 10
6 11 11 14 15 15 17 23 27 30 33 33 35 34 34 35 37 34 30 27 26 23 21 20 18 17 17 13 11 10 8 8 10
10 12 17 17 17 14 16 24 27 29 30 30 33 31 30 32 34 32 28 25 23 21 18 13 12 10 10 8 6 5 7 8 11
16 12 13 11 14 18 20 26 30 30 30 31 31 29 30 33 30 27 26 25 21 19 19 16 12 11 7 6 5 3 3 8 11
15 20 21 16 15 12 22 26 22 20 27 30 27 27 30 28 28 25 22 21 17 18 18 13 11 8 5 6 3 5 7 7 11
20 19 20 21 28 18 17 22 24 28 29 29 29 27 25 26 25 18 14 29 40 43 4 6 8 7 6 11 8 7 9 11 11
17 10 13 12 23 26 27 27 33 31 26 28 27 28 29 28 27 26 23 14 10 31 28 15 15 10 8 10 12 10 11 10 11
18 9 10 23 27 25 30 33 36 29 27 25 31 35 34 30 27 24 23 18 9 24 22 21 13 8 9 13 15 14 13 15 17
9 13 18 25 21 27 31 36 38 29 27 33 41 40 36 28 25 23 18 18 19 22 17 11 8 10 13 15 16 14 13 17 16
13 18 15 24 30 26 23 29 38 31 29 42 40 34 30 28 26 23 20 15 13 8 5 8 13 13 13 12 10 7 6 6 10
13 15 18 28 29 27 25 29 33 45 42 37 33 30 28 25 22 14 7 3 6 6 7 9 9 6 2 3 4 6 8 10 12
11 13 22 24 25 25 26 30 37 40 33 28 22 17 16 17 13 6 3 7 8 6 6 4 4 6 6 5 6 8 11 14 18
15 15 25 28 30 32 25 31 31 27 18 7 2 7 11 11 8 4 3 12 21 19 15 9 11 15 11 9 11 11 11 16 17
25 27 28 26 27 28 32 29 21 15 11 14 15 18 15 10 7 11 12 11 15 22 18 15 13 13 15 14 11 8 9 11 9
Wind_Direction
205 206 207 204 211 198 201 204 204 204 208 211 213 216 218 220 223 224 227 234 238 237 255 264 262 268 276 288 300 286 271 272 276
201 206 207 211 209 203 200 201 204 205 207 210 213 217 220 222 224 225 225 229 233 239 243 251 250 258 255 281 281 279 264 272 277
203 206 206 217 206 204 205 206 206 205 208 209 215 217 219 222 226 228 230 230 233 236 241 244 253 262 263 277 262 254 256 266 273
202 202 203 211 207 205 204 205 201 204 205 208 207 214 218 220 226 229 231 233 231 232 237 241 256 264 265 250 255 261 265 276 279
203 202 202 205 203 198 199 200 198 200 204 203 209 213 212 219 223 228 231 234 237 239 243 248 251 251 252 262 270 272 279 289 295
207 197 207 203 191 191 195 199 199 200 201 206 206 204 208 212 219 226 231 235 236 236 238 241 244 250 255 257 262 272 278 282 290
203 196 201 194 191 196 200 199 199 200 200 205 200 202 202 205 214 224 230 234 234 235 237 241 244 244 252 250 256 267 278 288 295
225 215 187 199 199 198 200 198 199 199 200 196 197 197 198 204 216 223 226 227 229 230 231 235 242 252 251 239 248 263 282 292 302
192 220 205 203 202 191 192 195 195 195 195 190 190 193 195 203 213 216 220 220 223 223 232 226 217 214 229 229 231 252 283 304 311
197 198 215 193 199 200 198 189 192 191 185 182 186 186 192 203 206 210 217 218 220 218 205 197 209 226 215 234 263 264 304 326 317
234 205 203 212 202 195 198 194 181 173 174 172 176 178 188 194 198 205 211 209 212 208 211 212 191 196 233 256 287 303 289 305 318
222 206 204 205 197 186 158 157 158 152 153 159 161 165 170 184 190 176 131 82 49 340 208 226 201 195 234 267 274 285 304 312 314
249 211 192 179 141 137 129 138 144 137 138 143 139 143 146 155 155 145 135 135 295 258 251 217 230 224 247 285 288 297 306 289 293
256 220 118 134 137 137 133 138 135 134 137 129 132 139 141 146 151 159 187 210 183 179 218 234 238 263 295 289 292 306 292 276 295
168 133 132 136 129 133 142 142 133 130 124 131 136 136 133 143 170 175 162 170 176 204 214 248 279 290 295 292 305 313 292 288 288
141 138 135 134 131 124 129 131 130 123 130 133 137 145 159 166 164 166 165 180 188 203 218 265 279 294 302 310 315 320 321 310 292
133 136 134 131 126 126 123 125 125 130 140 150 157 153 154 160 160 160 161 260 315 306 312 305 303 303 2 34 13 357 345 347 340
113 115 116 119 119 117 115 120 126 138 144 152 148 147 166 168 160 141 54 61 35 45 65 66 74 76 77 57 34 12 0 345 339
106 106 114 112 112 112 114 115 120 125 131 131 120 147 157 135 117 105 106 126 79 73 74 61 86 90 69 50 22 356 343 334 334
109 108 108 108 115 118 121 126 124 132 133 137 149 138 129 117 104 114 111 106 117 112 94 81 62 37 20 12 4 11 357 354 357